Terminal Aerodrome Forecast
Issued by NWS

Home | Current Version | Previous Version | Text Only | Print | Product List | Glossary On
Versions: 1 2 3 4 5 6 7 8 9 10 11 12 13 14 15 16 17 18 19 20 21 22 23 24 25 26
000
FTUS43 KDLH 300200 AAA
TAFHIB
TAF AMD
KHIB 300229Z 3002/3024 00000KT P6SM FEW005 OVC023
      TEMPO 3002/3006 4SM BR BKN005
     FM300600 36005KT 1/2SM FG BKN001
     FM301200 03005KT 3SM BR BKN005
     FM301500 02007KT P6SM BKN015
     FM301800 01004KT P6SM BKN025=

USA.gov is the U.S. government's official web portal to all federal, state and local government web resources and services.